Location: Ciserano
(45.5833°N, 9.6000°E)
Time: 18:27:06
(UTC+00:00)

Cosmos 1862 - Pass Details

Date: 29 November 2020
Orbit: 537 x 556 km, 82.5° (Epoch: 22 January)

Event Time Altitude Azimuth Distance (km) Brightness Sun altitude
Rises 05:21:24 0° 199° (SSW) 2,723 6.9 -13.3°
Reaches altitude 10° 05:23:36 10° 204° (SSW) 1,835 5.9 -12.9°
Maximum altitude 05:27:32 52° 282° (WNW) 697 3.4 -12.3°
Drops below altitude 10° 05:31:32 10° 359° (N) 1,851 5.8 -11.6°
Sets 05:33:46 0° 5° (N) 2,751 6.7 -11.2°
